class="group-blog masthead-fixed full-width wpb-js-composer js-comp-ver-5.4.5 vc_responsive"

41.86663, -103.66717

Hourly Observations for January 12, 2018

Temp ( °F °C ) Dew Point ( °F °C ) Humidity (%) Winds ( mph kmh ) Pressure ( in mb ) Visibility ( mi km ) Precip ( " mm )
12:53 am 00:53 Cloudy 36 2 32 0 86 WNW 12 19 30.36 1028 10 16 0.00 0.00
1:53 am 01:53 Cloudy 35 2 31 -1 85 NW 9 15 30.36 1028 10 16 0.00 0.00
2:53 am 02:53 Cloudy 36 2 30 -1 79 WNW 10 17 30.36 1028 10 16 0.00 0.00
3:53 am 03:53 Cloudy 34 1 30 -1 85 WNW 7 11 30.36 1028 10 16 0.00 0.00
4:53 am 04:53 Cloudy 35 2 31 -1 85 W 8 13 30.36 1028 10 16 0.00 0.00
5:53 am 05:53 Mostly Clear 32 0 29 -2 88 WNW 8 13 30.36 1028 10 16 0.00 0.00
6:53 am 06:53 Clear 30 -1 27 -3 88 N 7 11 30.36 1028 10 16 0.00 0.00
7:53 am 07:53 Sunny 30 -1 27 -3 88 WNW 7 11 30.33 1027 10 16 0.00 0.00
8:53 am 08:53 Partly Cloudy 31 -1 26 -3 82 NW 10 17 30.33 1027 10 16 0.00 0.00
9:53 am 09:53 Cloudy 34 1 27 -3 76 WNW 13 20 30.30 1026 10 16 0.00 0.00
10:53 am 10:53 Cloudy 36 2 28 -2 73 WNW 14 22 30.27 1025 10 16 0.00 0.00
11:53 am 11:53 Mostly Cloudy 39 4 30 -1 70 WNW 12 19 30.24 1024 10 16 0.00 0.00
12:53 pm 12:53 Cloudy 39 4 29 -2 67 WNW 10 17 30.21 1023 10 16 0.00 0.00
1:53 pm 13:53 Cloudy 40 4 30 -1 68 WNW 9 15 30.18 1022 10 16 0.00 0.00
2:53 pm 14:53 Cloudy 40 4 30 -1 68 WNW 9 15 30.18 1022 10 16 0.00 0.00
3:53 pm 15:53 Cloudy 39 4 30 -1 70 NW 9 15 30.18 1022 10 16 0.00 0.00
4:53 pm 16:53 Cloudy 39 4 30 -1 70 WNW 9 15 30.21 1023 10 16 0.00 0.00
5:53 pm 17:53 Cloudy 39 4 30 -1 70 NNW 15 24 30.21 1023 10 16 0.00 0.00
6:53 pm 18:53 Partly Cloudy 38 3 29 -2 70 NW 9 15 30.24 1024 10 16 0.00 0.00
7:53 pm 19:53 Cloudy 37 3 30 -1 76 N 13 20 30.27 1025 10 16 0.00 0.00
8:53 pm 20:53 Cloudy 33 1 27 -3 78 N 25 41 30.33 1027 10 16 0.00 0.00
9:37 pm 21:37 Cloudy with Light Snow 31 -1 26 -3 82 N 18 30 30.42 1030 3 4 0.00 0.00
9:46 pm 21:46 Cloudy with Light Snow 30 -1 26 -3 85 N 17 28 30.45 1031 3 5 0.01 0.25
9:53 pm 21:53 Cloudy with Light Snow 30 -1 27 -3 88 N 15 24 30.36 1028 3 4 0.01 0.25
10:16 pm 22:16 Cloudy with Light Snow 28 -2 27 -3 93 NNE 14 22 30.45 1031 2 3 0.00 0.00
10:30 pm 22:30 Cloudy with Light Snow 28 -2 27 -3 93 ENE 3 6 30.45 1031 2 3 0.00 0.00
10:53 pm 22:53 Cloudy with Light Snow 28 -2 26 -3 92 NNE 6 9 30.39 1029 1 2 0.01 0.25
11:05 pm 23:05 Cloudy with Light Snow 28 -2 24 -4 85 NNW 14 22 30.45 1031 2 3 0.00 0.00
11:31 pm 23:31 Cloudy with Light Snow 27 -3 23 -5 85 N 14 22 30.50 1033 4 6 0.01 0.25
11:39 pm 23:39 Cloudy with Light Snow 27 -3 23 -5 85 N 10 17 30.50 1033 4 6 0.01 0.25
11:53 pm 23:53 Cloudy with Light Snow 27 -3 22 -6 81 N 17 28 30.39 1029 8 13 0.01 0.25